Location: Hylvaty SDH
(49.9612°N, 16.4057°E)
Time: 21:12:47
(UTC+01:00)

X-37B - Visible Passes

Search period start: 15 January 2021 00:00
Search period end: 25 January 2021 00:00
Orbit: 384 x 390 km, 45.0° (Epoch: 02 January)

Date Brightness Start Highest point End Pass type
(mag) Time Alt. Az. Time Alt. Az. Time Alt. Az.
20 Jan 2.7 18:31:26 10° SSW 18:33:14 18° S 18:33:14 18° S visible
21 Jan 3.0 17:33:55 10° S 17:35:30 13° SSE 17:37:06 10° ESE visible
21 Jan 3.2 19:08:41 10° SW 19:09:46 18° SW 19:09:46 18° SW visible
22 Jan 2.2 18:10:33 10° SW 18:13:12 24° SSE 18:13:59 22° SE visible
23 Jan 2.7 17:12:36 10° SSW 17:14:54 18° SSE 17:17:13 10° ESE visible
23 Jan 2.1 18:48:07 10° WSW 18:50:28 30° SSW 18:50:28 30° SSW visible
24 Jan 2.0 17:49:51 10° SW 17:52:41 29° S 17:54:39 16° ESE visible
24 Jan 3.5 19:26:02 10° WSW 19:26:56 16° WSW 19:26:56 16° WSW visible
